• en Belgique
  • Liste des pays
  • À 7 jours
  • Température de l'eau
  • Carte satellitaire
  • Carte météo
  • Widgets météo
  • user-avatar
    Se connecter

    Météo par heure à Yulara

    Ce jour, 21 Août, Lundi

    Heure Température Précipitation Vent Pression Humidité
    00:00 +18°C° 0 mm 7 m/s 718 mmHg 28%
    01:00 +17°C° 0 mm 7 m/s 718 mmHg 29%
    02:00 +16°C° 0 mm 6 m/s 718 mmHg 30%
    03:00 +15°C° 0 mm 5 m/s 718 mmHg 30%
    04:00 +14°C° 0 mm 4 m/s 718 mmHg 35%
    05:00 +13°C° 0 mm 4 m/s 719 mmHg 39%
    06:00 +13°C° 0 mm 4 m/s 719 mmHg 44%
    07:00 +13°C° 0 mm 5 m/s 720 mmHg 45%
    08:00 +14°C° 0 mm 5 m/s 720 mmHg 45%
    09:00 +15°C° 0 mm 6 m/s 721 mmHg 45%
    10:00 +17°C° 0 mm 5 m/s 720 mmHg 40%
    11:00 +20°C° 0 mm 5 m/s 720 mmHg 34%
    12:00 +21°C° 0 mm 4 m/s 720 mmHg 29%
    13:00 +22°C° 0 mm 4 m/s 720 mmHg 26%
    14:00 +23°C° 0 mm 4 m/s 720 mmHg 23%
    15:00 +25°C° 0 mm 3 m/s 719 mmHg 20%
    16:00 +24°C° 0 mm 3 m/s 719 mmHg 22%
    17:00 +22°C° 0 mm 3 m/s 719 mmHg 23%
    18:00 +21°C° 0 mm 3 m/s 719 mmHg 25%
    19:00 +20°C° 0 mm 4 m/s 720 mmHg 28%
    20:00 +19°C° 0 mm 4 m/s 720 mmHg 31%
    21:00 +17°C° 0 mm 5 m/s 720 mmHg 35%
    22:00 +16°C° 0 mm 5 m/s 720 mmHg 37%
    23:00 +16°C° 0 mm 5 m/s 720 mmHg 39%

    Demain, 22 Août, Mardi

    Heure Température Précipitation Vent Pression Humidité
    00:00 +15°C° 0 mm 5 m/s 720 mmHg 41%
    01:00 +15°C° 0 mm 5 m/s 720 mmHg 43%
    02:00 +14°C° 0 mm 5 m/s 720 mmHg 45%
    03:00 +13°C° 0 mm 4 m/s 720 mmHg 47%
    04:00 +13°C° 0 mm 4 m/s 720 mmHg 49%
    05:00 +12°C° 0 mm 4 m/s 720 mmHg 51%
    06:00 +12°C° 0 mm 4 m/s 720 mmHg 53%
    07:00 +13°C° 0 mm 5 m/s 721 mmHg 50%
    08:00 +15°C° 0 mm 6 m/s 721 mmHg 47%
    09:00 +16°C° 0 mm 7 m/s 722 mmHg 43%
    10:00 +18°C° 0 mm 7 m/s 721 mmHg 38%
    11:00 +21°C° 0 mm 6 m/s 721 mmHg 33%
    12:00 +24°C° 0 mm 6 m/s 721 mmHg 28%
    13:00 +26°C° 0 mm 5 m/s 721 mmHg 26%
    14:00 +26°C° 0 mm 3 m/s 720 mmHg 24%
    15:00 +27°C° 0 mm 2 m/s 720 mmHg 23%
    16:00 +26°C° 0 mm 2 m/s 720 mmHg 24%
    17:00 +25°C° 0 mm 3 m/s 720 mmHg 26%
    18:00 +25°C° 0 mm 3 m/s 719 mmHg 27%
    19:00 +24°C° 0 mm 3 m/s 720 mmHg 29%
    20:00 +22°C° 0 mm 3 m/s 720 mmHg 31%
    21:00 +21°C° 0 mm 3 m/s 721 mmHg 33%
    22:00 +20°C° 0 mm 3 m/s 721 mmHg 35%
    23:00 +19°C° 0 mm 3 m/s 721 mmHg 37%

    Après-demain, 23 Août, Mercredi

    Heure Température Précipitation Vent Pression Humidité
    00:00 +19°C° 0 mm 4 m/s 720 mmHg 39%
    01:00 +18°C° 0 mm 4 m/s 720 mmHg 40%
    02:00 +17°C° 0 mm 4 m/s 720 mmHg 42%
    03:00 +17°C° 0 mm 4 m/s 720 mmHg 44%
    04:00 +15°C° 0 mm 4 m/s 720 mmHg 45%
    05:00 +15°C° 0 mm 4 m/s 720 mmHg 46%
    06:00 +14°C° 0 mm 4 m/s 720 mmHg 46%
    07:00 +15°C° 0 mm 4 m/s 721 mmHg 42%
    08:00 +18°C° 0 mm 4 m/s 722 mmHg 38%
    09:00 +19°C° 0 mm 5 m/s 722 mmHg 34%
    10:00 +21°C° 0 mm 5 m/s 722 mmHg 32%
    11:00 +23°C° 0 mm 4 m/s 722 mmHg 29%
    12:00 +25°C° 0 mm 4 m/s 722 mmHg 26%
    13:00 +26°C° 0 mm 4 m/s 721 mmHg 25%
    14:00 +27°C° 0 mm 5 m/s 721 mmHg 24%
    15:00 +28°C° 0 mm 5 m/s 720 mmHg 23%
    16:00 +27°C° 0 mm 4 m/s 720 mmHg 24%
    17:00 +26°C° 0 mm 4 m/s 721 mmHg 26%
    18:00 +25°C° 0 mm 4 m/s 721 mmHg 27%
    19:00 +23°C° 0 mm 4 m/s 721 mmHg 28%
    20:00 +22°C° 0 mm 4 m/s 722 mmHg 29%
    21:00 +21°C° 0 mm 4 m/s 722 mmHg 30%
    22:00 +21°C° 0 mm 4 m/s 723 mmHg 31%
    23:00 +20°C° 0 mm 4 m/s 723 mmHg 31%

    24 Août, Jeudi

    Heure Température Précipitation Vent Pression Humidité
    00:00 +19°C° 0 mm 5 m/s 723 mmHg 32%
    01:00 +17°C° 0 mm 5 m/s 723 mmHg 34%
    02:00 +17°C° 0 mm 5 m/s 722 mmHg 36%
    03:00 +16°C° 0 mm 6 m/s 722 mmHg 38%
    04:00 +16°C° 0 mm 6 m/s 722 mmHg 40%
    05:00 +15°C° 0 mm 6 m/s 723 mmHg 42%
    06:00 +14°C° 0 mm 5 m/s 723 mmHg 44%
    07:00 +16°C° 0 mm 6 m/s 723 mmHg 40%
    08:00 +17°C° 0 mm 7 m/s 724 mmHg 37%
    09:00 +18°C° 0 mm 8 m/s 724 mmHg 33%
    10:00 +21°C° 0 mm 7 m/s 724 mmHg 30%
    11:00 +23°C° 0 mm 7 m/s 724 mmHg 27%
    12:00 +24°C° 0 mm 7 m/s 723 mmHg 24%
    13:00 +26°C° 0 mm 6 m/s 722 mmHg 22%
    14:00 +26°C° 0 mm 6 m/s 722 mmHg 21%
    15:00 +27°C° 0 mm 6 m/s 721 mmHg 19%
    16:00 +26°C° 0 mm 5 m/s 721 mmHg 20%
    17:00 +25°C° 0 mm 5 m/s 721 mmHg 21%
    18:00 +23°C° 0 mm 5 m/s 721 mmHg 22%
    19:00 +22°C° 0 mm 5 m/s 722 mmHg 23%
    20:00 +21°C° 0 mm 5 m/s 722 mmHg 25%
    21:00 +20°C° 0 mm 6 m/s 723 mmHg 26%
    22:00 +19°C° 0 mm 6 m/s 723 mmHg 27%
    23:00 +17°C° 0 mm 6 m/s 722 mmHg 27%

    25 Août, Vendredi

    Heure Température Précipitation Vent Pression Humidité
    00:00 +17°C° 0 mm 6 m/s 722 mmHg 28%
    01:00 +16°C° 0 mm 6 m/s 722 mmHg 29%
    02:00 +15°C° 0 mm 6 m/s 721 mmHg 30%
    03:00 +15°C° 0 mm 6 m/s 721 mmHg 31%
    04:00 +14°C° 0 mm 6 m/s 721 mmHg 32%
    05:00 +14°C° 0 mm 5 m/s 721 mmHg 33%
    06:00 +13°C° 0 mm 5 m/s 722 mmHg 35%
    07:00 +15°C° 0 mm 6 m/s 722 mmHg 33%
    08:00 +16°C° 0 mm 7 m/s 723 mmHg 32%
    09:00 +17°C° 0 mm 7 m/s 723 mmHg 30%
    10:00 +20°C° 0 mm 7 m/s 723 mmHg 27%
    11:00 +22°C° 0 mm 7 m/s 722 mmHg 25%
    12:00 +24°C° 0 mm 8 m/s 722 mmHg 22%
    13:00 +24°C° 0 mm 7 m/s 721 mmHg 21%
    14:00 +26°C° 0 mm 6 m/s 721 mmHg 20%
    15:00 +27°C° 0 mm 6 m/s 720 mmHg 20%
    16:00 +26°C° 0 mm 5 m/s 720 mmHg 21%
    17:00 +25°C° 0 mm 5 m/s 720 mmHg 22%
    18:00 +23°C° 0 mm 5 m/s 720 mmHg 23%
    19:00 +22°C° 0 mm 5 m/s 721 mmHg 24%
    20:00 +21°C° 0 mm 6 m/s 721 mmHg 25%
    21:00 +20°C° 0 mm 6 m/s 722 mmHg 26%
    22:00 +18°C° 0 mm 7 m/s 722 mmHg 26%
    23:00 +17°C° 0 mm 7 m/s 722 mmHg 26%

    26 Août, Samedi

    Heure Température Précipitation Vent Pression Humidité
    00:00 +16°C° 0 mm 7 m/s 721 mmHg 27%
    01:00 +16°C° 0 mm 7 m/s 721 mmHg 28%
    02:00 +15°C° 0 mm 6 m/s 721 mmHg 29%
    03:00 +14°C° 0 mm 5 m/s 721 mmHg 30%
    04:00 +14°C° 0 mm 5 m/s 722 mmHg 30%
    05:00 +13°C° 0 mm 5 m/s 722 mmHg 30%
    06:00 +12°C° 0 mm 5 m/s 722 mmHg 31%
    07:00 +14°C° 0 mm 6 m/s 723 mmHg 27%
    08:00 +15°C° 0 mm 6 m/s 724 mmHg 24%
    09:00 +16°C° 0 mm 7 m/s 724 mmHg 20%
    10:00 +17°C° 0 mm 7 m/s 724 mmHg 19%
    11:00 +18°C° 0 mm 7 m/s 724 mmHg 18%
    12:00 +20°C° 0 mm 7 m/s 723 mmHg 17%
    13:00 +21°C° 0 mm 6 m/s 723 mmHg 17%
    14:00 +22°C° 0 mm 6 m/s 722 mmHg 17%
    15:00 +23°C° 0 mm 5 m/s 722 mmHg 18%
    16:00 +22°C° 0 mm 5 m/s 722 mmHg 19%
    17:00 +21°C° 0 mm 5 m/s 722 mmHg 20%
    18:00 +21°C° 0 mm 4 m/s 722 mmHg 21%
    19:00 +20°C° 0 mm 5 m/s 723 mmHg 22%
    20:00 +19°C° 0 mm 5 m/s 723 mmHg 23%
    21:00 +17°C° 0 mm 5 m/s 724 mmHg 23%
    22:00 +17°C° 0 mm 6 m/s 724 mmHg 23%
    23:00 +16°C° 0 mm 6 m/s 724 mmHg 23%
    Voir plus